[[{"header":{"parameterUnit":"m.s-1","parameterCategory":1,"la1":30.2991,"la2":30.254,"lo1":-89.0895,"lo2":-89.0444,"dy":0.0017,"dx":0.0017,"nx":28,"ny":28,"refTime":"2025-11-17T03:00:00:Z","depth":0,"parameterNumber":2,"parameterNumberName":"U-component_of_WINDS"},"data":[0,0,0,0,0,0,0,0,0,0,0,0,0,0,0,0,0,0,0,0,0,0,0,0,0,0,0,0,0,0,0,0,0,0,0,0,0,0,0,0,0,0,0,0,0,0,0,0,0,0,0,0,0,0,0,0,0,0,-1.652,-1.6519,0,-1.6482,-1.6481,-1.6481,-1.6407,-1.6406,-1.6404,-1.6403,-1.6363,-1.6363,-1.6364,0,0,0,0,0,0,0,0,0,0,0,0,0,-1.6529,-1.653,-1.652,-1.6519,-1.6519,-1.6482,-1.6481,-1.6481,-1.6407,-1.6406,-1.6404,-1.6402,-1.6363,-1.6363,-1.6364,0,0,0,0,0,0,0,0,0,0,0,0,0,-1.6512,-1.653,-1.652,-1.6478,-1.6474,-1.6482,-1.6481,-1.6481,-1.6408,-1.6406,-1.6403,-1.6401,-1.6363,-1.6363,-1.6364,-1.641,0,0,-1.6365,-1.6365,0,0,0,0,0,0,0,0,-1.6513,-1.6511,-1.6484,-1.6481,-1.6476,-1.6447,-1.647,-1.6457,-1.6408,-1.6433,-1.6403,-1.64,-1.6393,-1.6391,-1.6388,-1.6408,-1.6406,-1.6365,-1.6365,-1.6366,-1.6366,0,0,0,0,0,0,0,-1.6514,-1.6513,-1.6505,-1.6484,-1.6479,-1.6461,-1.6456,-1.6467,-1.6425,-1.643,-1.6425,-1.6422,-1.639,-1.6388,-1.6387,-1.6406,-1.6365,-1.6365,-1.6366,-1.6366,-1.6463,-1.6465,0,0,0,0,0,0,-1.6521,-1.6514,-1.6506,-1.6503,-1.6489,-1.6463,-1.6457,-1.6458,-1.6425,-1.6418,-1.6423,-1.6418,-1.6388,-1.6386,-1.6385,-1.6437,-1.6366,-1.6366,-1.6366,-1.646,-1.6463,-1.6466,0,0,0,0,0,0,-1.6522,-1.6521,-1.6507,-1.6507,-1.6504,-1.6465,-1.6467,-1.6459,-1.6457,-1.642,-1.6412,-1.6429,-1.6386,-1.6384,-1.6404,-1.6435,-1.6366,-1.6367,-1.6458,-1.6461,-1.6464,-1.6542,0,0,0,0,0,0,-1.6523,-1.6522,-1.6539,-1.6508,-1.6504,-1.6527,-1.6469,-1.646,-1.6458,-1.645,-1.6423,-1.6416,-1.6385,-1.6404,-1.6405,-1.6434,-1.6367,-1.6455,-1.6459,-1.6463,-1.6536,-1.6547,-1.6557,0,0,0,0,0,-1.6523,-1.6561,-1.654,-1.6539,-1.6525,-1.6529,-1.6527,-1.649,-1.646,-1.6477,-1.6454,-1.6417,-1.6432,-1.6407,-1.6407,-1.6437,-1.6453,-1.6458,-1.6463,-1.6532,-1.6545,-1.6557,0,0,0,0,0,0,-1.6595,-1.6557,-1.6532,-1.6562,-1.655,-1.6517,-1.6536,-1.6506,-1.6501,-1.6495,-1.6449,-1.6444,-1.647,-1.6455,-1.6429,-1.648,-1.6436,-1.6442,-1.6489,-1.6501,-1.6511,-1.6514,-1.6367,0,0,0,0,0,-1.6615,-1.6622,-1.6588,-1.6617,-1.6613,-1.6576,-1.6577,-1.655,-1.6535,-1.6529,-1.6507,-1.6494,-1.6496,-1.6498,-1.6497,-1.6534,-1.6528,-1.6555,-1.6566,-1.6574,-1.6579,-1.6599,-1.6611,-1.6483,-1.6483,-1.6483,0,0,-1.6655,-1.6635,-1.6642,-1.6631,-1.6619,-1.6627,-1.6572,-1.6583,-1.6589,-1.6531,-1.6548,-1.6532,-1.6515,-1.6544,-1.6556,-1.6533,-1.6613,-1.6581,-1.6588,-1.6588,-1.6605,-1.6617,-1.6628,-1.6486,-1.6486,-1.6485,0,0,-1.6732,-1.6718,-1.6741,-1.673,-1.6712,-1.6688,-1.6694,-1.6666,-1.6654,-1.6671,-1.6628,-1.6635,-1.6639,-1.6628,-1.6624,-1.6701,-1.6667,-1.6702,-1.6755,-1.6775,-1.6785,-1.6794,-1.6821,-1.6832,-1.6707,-1.6707,-1.6707,0,-1.6784,-1.6795,-1.6757,-1.6771,-1.6769,-1.6718,-1.6741,-1.6732,-1.6715,-1.6714,-1.6689,-1.6694,-1.6679,-1.6705,-1.6724,-1.6722,-1.6728,-1.6704,-1.6787,-1.6795,-1.6802,-1.6828,-1.6839,-1.6712,-1.6711,-1.6711,-1.671,0,-1.6861,-1.6869,-1.689,-1.6876,-1.6876,-1.6895,-1.686,-1.6864,-1.6838,-1.6817,-1.6836,-1.6817,-1.6812,-1.6816,-1.679,-1.684,-1.6826,-1.6795,-1.6749,-1.682,-1.6843,-1.6853,-1.6718,-1.6716,-1.6715,-1.6714,0,0,-1.698,-1.6946,-1.6954,-1.6948,-1.6925,-1.6931,-1.6949,-1.6945,-1.695,-1.6941,-1.6954,-1.696,-1.6931,-1.6926,-1.6899,-1.6917,-1.698,-1.6883,-1.6882,-1.6901,-1.7033,-1.7057,-1.7069,-1.6958,-1.696,-1.6961,-1.7035,0,-1.7052,-1.7079,-1.7046,-1.7081,-1.7089,-1.7042,-1.7058,-1.7046,-1.7028,-1.7032,-1.7012,-1.7017,-1.6978,-1.6975,-1.699,-1.6969,-1.7005,-1.6963,-1.697,-1.6971,-1.6975,-1.7081,-1.7105,-1.7175,-1.7044,-1.7045,-1.7046,0,-1.7138,-1.7134,-1.717,-1.7147,-1.7149,-1.7164,-1.7158,-1.7163,-1.715,-1.7135,-1.7131,-1.71,-1.7116,-1.7073,-1.7095,-1.7068,-1.7069,-1.7059,-1.7061,-1.7059,-1.7012,-1.7082,-1.7197,-1.7207,-1.706,-1.7059,-1.7058,0,-1.7221,-1.7225,-1.7247,-1.7243,-1.7217,-1.7228,-1.7218,-1.7203,-1.7203,-1.7199,-1.7199,-1.7196,-1.7195,-1.7194,-1.7163,-1.7135,-1.719,-1.7144,-1.7178,-1.7179,-1.719,-1.7189,-1.7307,-1.7193,-1.7193,-1.7192,-1.7192,0,-1.7304,-1.7328,-1.7284,-1.7298,-1.7324,-1.7287,-1.7313,-1.7298,-1.7285,-1.7296,-1.7255,-1.7266,-1.7225,-1.7231,-1.7207,-1.723,-1.7229,-1.7218,-1.7211,-1.7221,-1.7223,-1.722,-1.7214,-1.7195,-1.7195,-1.7194,-1.7194,0,-1.7401,-1.7372,-1.7394,-1.7368,-1.7362,-1.7383,-1.7361,-1.7373,-1.7353,-1.7366,-1.7367,-1.7336,-1.7342,-1.7311,-1.7311,-1.7295,-1.7329,-1.7314,-1.7334,-1.7329,-1.7364,-1.7361,-1.7483,-1.7497,-1.7376,-1.7377,-1.7378,0,-1.7455,-1.7472,-1.7449,-1.7453,-1.7445,-1.7453,-1.7453,-1.7419,-1.7421,-1.7408,-1.7422,-1.7425,-1.7425,-1.7436,-1.7414,-1.7414,-1.7398,-1.7441,-1.7398,-1.7408,-1.7398,-1.7397,-1.7399,-1.745,-1.7451,-1.7453,-1.7454,0,-1.7554,-1.7539,-1.7542,-1.7541,-1.7543,-1.754,-1.7534,-1.754,-1.7503,-1.7508,-1.7513,-1.7514,-1.7515,-1.7518,-1.7514,-1.7504,-1.7473,-1.7468,-1.7476,-1.7485,-1.7495,-1.749,-1.7358,-1.7465,-1.7464,-1.7463,-1.7462,-1.7462,-1.763,-1.7644,-1.763,-1.7635,-1.7627,-1.7624,-1.7634,-1.7616,-1.7621,-1.7619,-1.7598,-1.7609,-1.7597,-1.7588,-1.7581,-1.7589,-1.7569,-1.758,-1.7582,-1.7586,-1.7592,-1.7496,-1.7588,-1.7588,-1.7588,-1.7587,-1.7587,0,-1.7726,-1.7716,-1.7721,-1.7715,-1.7719,-1.7691,-1.7684,-1.7689,-1.7699,-1.7691,-1.7692,-1.77,-1.7704,-1.7682,-1.7683,-1.7694,-1.768,-1.7695,-1.7693,-1.7692,-1.761,-1.7603,-1.7707,-1.7707,-1.7707,-1.7707,-1.7707,-1.7707,-1.7777,-1.7799,-1.7784,-1.7802,-1.7792,-1.7801,-1.78,-1.7797,-1.779,-1.7801,-1.7804,-1.779,-1.7777,-1.7778,-1.778,-1.7774,-1.7776,-1.7796,-1.7785,-1.7709,-1.7697,-1.7686,-1.7679,-1.7797,-1.7797,-1.7866,-1.7866,-1.7867]},{"header":{"parameterUnit":"m.s-1","parameterCategory":1,"la1":30.2991,"la2":30.254,"lo1":-89.0895,"lo2":-89.0444,"dy":0.0017,"dx":0.0017,"nx":28,"ny":28,"refTime":"2025-11-17T03:00:00:Z","depth":0,"parameterNumber":3,"parameterNumberName":"V-component_of_WINDS"},"data":[0,0,0,0,0,0,0,0,0,0,0,0,0,0,0,0,0,0,0,0,0,0,0,0,0,0,0,0,0,0,0,0,0,0,0,0,0,0,0,0,0,0,0,0,0,0,0,0,0,0,0,0,0,0,0,0,0,0,1.1406,1.1406,0,1.1379,1.1379,1.1378,1.1349,1.1348,1.1348,1.1347,1.1317,1.1317,1.1317,0,0,0,0,0,0,0,0,0,0,0,0,0,1.1433,1.1432,1.1406,1.1406,1.1405,1.1379,1.1379,1.1378,1.1349,1.1348,1.1348,1.1347,1.1317,1.1317,1.1316,0,0,0,0,0,0,0,0,0,0,0,0,0,1.1415,1.1432,1.1406,1.1388,1.1386,1.1379,1.1379,1.1378,1.1349,1.1348,1.1347,1.1347,1.1318,1.1317,1.1316,1.1325,0,0,1.1315,1.1314,0,0,0,0,0,0,0,0,1.1416,1.1414,1.1391,1.1389,1.1387,1.1367,1.1377,1.136,1.1349,1.1363,1.1347,1.1347,1.1334,1.1332,1.1328,1.1324,1.1323,1.1314,1.1314,1.1314,1.1314,0,0,0,0,0,0,0,1.1417,1.1415,1.1395,1.139,1.1388,1.1381,1.1377,1.1374,1.1352,1.1361,1.1359,1.1356,1.1333,1.1329,1.1327,1.1322,1.1315,1.1314,1.1314,1.1313,1.1327,1.1328,0,0,0,0,0,0,1.1421,1.1416,1.1396,1.1394,1.14,1.1381,1.1377,1.1374,1.1352,1.1348,1.1357,1.1355,1.133,1.1328,1.1326,1.1337,1.1314,1.1313,1.1313,1.1327,1.1327,1.1328,0,0,0,0,0,0,1.1422,1.142,1.1397,1.1405,1.1401,1.1381,1.1377,1.1373,1.1369,1.1349,1.1345,1.1357,1.133,1.1327,1.1327,1.1336,1.1313,1.1312,1.1326,1.1327,1.1328,1.1358,0,0,0,0,0,0,1.1423,1.142,1.1423,1.1405,1.1401,1.1398,1.1378,1.1373,1.1369,1.1366,1.1348,1.1344,1.1329,1.1328,1.1326,1.1334,1.1312,1.1325,1.1326,1.1327,1.1356,1.136,1.1363,0,0,0,0,0,1.1424,1.1431,1.1423,1.1421,1.1404,1.1399,1.1396,1.1379,1.1369,1.1373,1.136,1.1345,1.1335,1.1328,1.1326,1.1334,1.1324,1.1326,1.1327,1.1355,1.1359,1.1363,0,0,0,0,0,0,1.1449,1.1428,1.1419,1.1421,1.1412,1.1394,1.1396,1.1384,1.1377,1.1375,1.1354,1.135,1.1352,1.1343,1.1335,1.1343,1.1328,1.1329,1.1349,1.1353,1.1357,1.1359,1.1311,0,0,0,0,0,1.1455,1.1453,1.1435,1.1438,1.1434,1.1417,1.1413,1.1402,1.1391,1.1386,1.1374,1.1364,1.1359,1.1355,1.1349,1.1355,1.1352,1.136,1.1364,1.1367,1.1368,1.1373,1.1377,1.1334,1.1334,1.1334,0,0,1.1467,1.1456,1.1455,1.1443,1.1435,1.1433,1.1413,1.1411,1.141,1.1386,1.1385,1.1376,1.1364,1.1367,1.1368,1.1359,1.138,1.1369,1.1372,1.1371,1.1375,1.1379,1.1383,1.1335,1.1335,1.1334,0,0,1.1488,1.1479,1.1482,1.1475,1.1463,1.1452,1.1453,1.1437,1.143,1.143,1.1413,1.1411,1.1402,1.1395,1.139,1.1413,1.1399,1.1411,1.143,1.1435,1.1439,1.1442,1.1451,1.1455,1.1413,1.1413,1.1413,0,1.1504,1.1501,1.1485,1.1485,1.1481,1.1462,1.1465,1.1459,1.1445,1.1443,1.1434,1.1426,1.1415,1.1418,1.1424,1.142,1.1422,1.1413,1.144,1.1442,1.1445,1.1454,1.1457,1.1415,1.1414,1.1414,1.1414,0,1.1522,1.1521,1.1525,1.1515,1.1511,1.1513,1.1498,1.1496,1.1486,1.1476,1.1477,1.1465,1.1458,1.1458,1.1446,1.146,1.1456,1.1443,1.1427,1.1451,1.1459,1.1462,1.1417,1.1416,1.1416,1.1415,0,0,1.1555,1.1539,1.1541,1.1538,1.1525,1.1523,1.1526,1.152,1.152,1.1512,1.1514,1.1509,1.1499,1.1494,1.1482,1.1487,1.1508,1.1474,1.1474,1.1482,1.1525,1.1534,1.1538,1.15,1.15,1.1501,1.1526,0,1.1575,1.1578,1.1565,1.1572,1.1572,1.1555,1.1557,1.155,1.1542,1.154,1.1531,1.1528,1.1514,1.1511,1.1515,1.1505,1.1517,1.1503,1.1502,1.1502,1.1506,1.1542,1.1551,1.1576,1.1529,1.153,1.153,0,1.1597,1.1593,1.16,1.1591,1.159,1.1592,1.1588,1.1586,1.1579,1.1573,1.1569,1.1556,1.1559,1.1544,1.1548,1.1539,1.1539,1.1534,1.1535,1.1534,1.1517,1.1543,1.1583,1.1587,1.1535,1.1534,1.1534,0,1.1623,1.1619,1.1624,1.1621,1.1609,1.1612,1.1607,1.1599,1.1597,1.1594,1.1593,1.1589,1.1587,1.1584,1.1572,1.1562,1.1578,1.1561,1.1573,1.1574,1.1577,1.1577,1.1618,1.1576,1.1576,1.1576,1.1576,0,1.1645,1.1651,1.1635,1.1638,1.1645,1.1631,1.1637,1.1631,1.1625,1.1626,1.1611,1.1613,1.1596,1.1597,1.1587,1.1593,1.1592,1.1588,1.1585,1.1589,1.159,1.1588,1.1586,1.1577,1.1577,1.1576,1.1576,0,1.1674,1.1664,1.1668,1.1658,1.1656,1.1661,1.1653,1.1655,1.1648,1.165,1.165,1.1638,1.1638,1.1626,1.1622,1.1616,1.1627,1.1621,1.163,1.1628,1.1641,1.164,1.1683,1.1688,1.1642,1.1643,1.1643,0,1.1689,1.1694,1.1685,1.1686,1.1683,1.1684,1.1683,1.1671,1.1671,1.1665,1.1669,1.1668,1.1667,1.1669,1.1659,1.1658,1.1652,1.1667,1.1651,1.1657,1.1654,1.1654,1.1655,1.167,1.1671,1.1671,1.1672,0,1.1718,1.1714,1.1714,1.1713,1.1714,1.1712,1.1709,1.1711,1.1697,1.1698,1.17,1.1699,1.1698,1.1698,1.1696,1.1691,1.168,1.1677,1.168,1.1684,1.169,1.1688,1.1639,1.1676,1.1675,1.1675,1.1675,1.1675,1.1741,1.1745,1.1741,1.1743,1.174,1.1739,1.1742,1.1736,1.1737,1.1736,1.1729,1.1732,1.1727,1.1723,1.172,1.1722,1.1715,1.1719,1.172,1.1721,1.1724,1.169,1.1722,1.1722,1.1721,1.1721,1.1721,0,1.177,1.1768,1.1769,1.1768,1.177,1.1761,1.1758,1.176,1.1763,1.1761,1.1761,1.1764,1.1765,1.1757,1.1757,1.1761,1.1756,1.1762,1.1761,1.1761,1.173,1.1728,1.1766,1.1766,1.1766,1.1766,1.1766,1.1766,1.1786,1.1793,1.1789,1.1796,1.1793,1.1797,1.1797,1.1796,1.1794,1.1799,1.18,1.1796,1.1792,1.1792,1.1793,1.1791,1.1792,1.18,1.1796,1.1767,1.1763,1.1759,1.1757,1.18,1.18,1.1827,1.1827,1.1828]}]]